Location: *
(48.8667°N, 2.3331°E)
Time: 12:35:43
(UTC+00:00)

USA 234 - Visible Passes

Search period start: 06 August 2020 00:00
Search period end: 16 August 2020 00:00
Orbit: 1101 x 1106 km, 123.0° (Epoch: 02 August)

Date Brightness Start Highest point End Pass type
(mag) Time Alt. Az. Time Alt. Az. Time Alt. Az.
06 Aug 3.4 20:01:09 10° ESE 20:07:40 76° NNE 20:14:12 10° NW visible
06 Aug 3.9 21:47:46 26° S 21:51:00 42° SW 21:57:09 10° WNW visible
07 Aug 3.3 21:03:16 20° SE 21:08:01 72° SW 21:14:34 10° WNW visible
07 Aug 4.5 22:50:37 22° SW 22:51:48 23° SW 22:56:47 10° WNW visible
08 Aug 3.4 20:18:46 10° ESE 20:25:15 77° NNE 20:31:48 10° NW visible
08 Aug 3.8 22:06:06 31° S 22:08:35 42° SW 22:14:44 10° WNW visible
09 Aug 3.3 21:21:35 25° SE 21:25:36 71° SW 21:32:09 10° WNW visible
09 Aug 4.5 23:08:56 22° SW 23:09:22 23° SW 23:14:20 10° WNW visible
10 Aug 3.4 20:37:03 14° ESE 20:42:49 77° NNE 20:49:23 10° NW visible
10 Aug 3.8 22:24:24 35° SSW 22:26:09 42° SW 22:32:18 10° WNW visible
11 Aug 3.8 19:53:53 10° E 20:00:14 56° NNE 20:06:36 10° WNW visible
11 Aug 3.3 21:39:52 32° SE 21:43:10 71° SW 21:49:43 10° WNW visible
11 Aug 4.6 23:27:13 22° WSW 23:27:13 22° WSW 23:31:54 10° WNW visible
12 Aug 3.3 20:55:19 18° ESE 21:00:24 77° NNE 21:06:57 10° NW visible
12 Aug 3.7 22:42:40 39° SSW 22:43:44 41° SW 22:49:52 10° WNW visible
13 Aug 3.8 20:11:27 10° E 20:17:48 56° NNE 20:24:10 10° WNW visible
13 Aug 3.2 21:58:07 39° SE 22:00:44 71° SW 22:07:18 10° WNW visible
13 Aug 4.6 23:45:28 22° WSW 23:45:28 22° WSW 23:49:28 10° WNW visible
14 Aug 3.3 21:13:34 23° ESE 21:17:59 77° NNE 21:24:32 10° NW visible
14 Aug 3.7 23:00:54 41° SW 23:01:19 41° SW 23:07:27 10° WNW visible
15 Aug 3.7 20:29:01 10° E 20:35:23 57° NNE 20:41:45 10° WNW visible
15 Aug 3.2 22:16:21 47° SSE 22:18:19 70° SW 22:24:52 10° WNW visible
